St.-Jovite, Quebec

7:56 PM EDT on April 21, 2018 (GMT -0400)
St.-Jovite

Weather History for CWJT - October, 2013

Change the Weather History Date:

Friday, October 4, 2013

  Actual Average Record
Temperature  
Mean Temperature 56 °F -  
Max Temperature 63 °F - - ()
Min Temperature 50 °F - - ()
Degree Days  
Heating Degree Days 8    
Growing Degree Days 6 (Base 50)    
Moisture  
Dew Point 48 °F    
Average Humidity 79    
Maximum Humidity 96    
Minimum Humidity 42    
Precipitation  
Precipitation 0.00 in - - ()
Sea Level Pressure  
Sea Level Pressure 30.11 in    
Wind  
Wind Speed 1 mph ()    
Max Wind Speed 2 mph    
Max Gust Speed -    
T = Trace of Precipitation, MM = Missing Value Source: Averaged Metar Reports

Daily Weather History Graph

Daily Weather History Graph

Search for Another Location

Airport or City:

Astronomy

Oct. 04, 2013 Rise Set
Actual Time 7:00 AM EDT 6:31 PM EDT
Civil Twilight 6:30 AM EDT 7:01 PM EDT
Nautical Twilight 5:56 AM EDT 7:36 PM EDT
Astronomical Twilight 5:21 AM EDT 8:11 PM EDT
Moon 6:34 AM EDT (10/4) 6:10 PM EDT (10/4)
Length of Visible Light 12h 30m
Length of Day
11h 31m
Waning Crescent, 0% of the Moon is Illuminated
Oct 4
Waning Crescent
Oct 4
New
Oct 11
First Quarter
Oct 18
Full
Oct 26
Last Quarter

Hourly Weather History & Observations

Time (EDT) Temp. Dew Point Humidity Pressure Visibility Wind Dir Wind Speed Gust Speed Precip Events Conditions
1:00 AM 52.3 °F 49.1 °F 89% 30.06 in - Calm Calm - N/A   Unknown
2:00 AM 51 °F 50 °F 96% 30.06 in - NNE 1.2 mph - -  
2:00 AM 51.4 °F 50.2 °F 95% 30.06 in - NNE 1.2 mph - N/A   Unknown
3:00 AM 51.1 °F 49.8 °F 95% 30.06 in - Calm Calm - N/A   Unknown
4:00 AM 50.9 °F 49.6 °F 95% 30.06 in - NNE 1.2 mph - N/A   Unknown
5:00 AM 50.7 °F 49.5 °F 95% 30.08 in - NNE 1.2 mph - N/A   Unknown
6:00 AM 50.2 °F 48.6 °F 94% 30.09 in - North 1.2 mph - N/A   Unknown
7:00 AM 50.5 °F 47.7 °F 90% 30.11 in - ENE 1.2 mph - N/A   Unknown
8:00 AM 52 °F 48 °F 80% 30.12 in - East 1.2 mph - -  
8:00 AM 52.2 °F 47.7 °F 85% 30.12 in - East 1.2 mph - N/A   Unknown
9:00 AM 52.3 °F 49.5 °F 90% 30.14 in - Calm Calm - N/A   Unknown
10:00 AM 55.8 °F 46.2 °F 70% 30.14 in - ESE 2.3 mph - N/A   Unknown
11:00 AM 56.8 °F 47.8 °F 72% 30.13 in - Calm Calm - N/A   Unknown
12:00 PM 60.6 °F 45.1 °F 57% 30.13 in - ESE 2.3 mph - N/A   Unknown
1:00 PM 59.5 °F 47.3 °F 64% 30.12 in - East 1.2 mph - N/A   Unknown
2:00 PM 60 °F 43 °F 42% 30.12 in - South 1.2 mph - -  
2:00 PM 59.9 °F 43.0 °F 54% 30.12 in - South 1.2 mph - N/A   Unknown
3:00 PM 61.0 °F 46.9 °F 60% 30.11 in - SE 1.2 mph - N/A   Unknown
4:00 PM 61.7 °F 45.7 °F 56% 30.10 in - WNW 1.2 mph - N/A   Unknown
5:00 PM 59.4 °F 46.0 °F 61% 30.09 in - North 1.2 mph - N/A   Unknown
6:00 PM 57.4 °F 49.1 °F 74% 30.11 in - North 1.2 mph - N/A   Unknown
7:00 PM 53.8 °F 48.7 °F 83% 30.12 in - Calm Calm - N/A   Unknown
8:00 PM 52 °F 49 °F 85% 30.11 in - NNE 1.2 mph - -  
8:00 PM 52.2 °F 48.9 °F 89% 30.11 in - NNE 1.2 mph - N/A   Unknown
9:00 PM 51.3 °F 48.7 °F 91% 30.13 in - Calm Calm - N/A   Unknown
10:00 PM 50.5 °F 48.0 °F 91% 30.13 in - Calm Calm - N/A   Unknown
11:00 PM 50.4 °F 48.2 °F 92% 30.13 in - Calm Calm - N/A   Unknown